Location: Ford County Road and Bridge Department
(37.7686°N, 99.9762°W)
Time: 02:54:21
(UTC+00:00)

Daily predictions for brighter satellites

Satellite Brightness Start Highest point End
(mag) Time Altitude Azimuth Time Altitude Azimuth Time Altitude Azimuth
SMAP 3.1 00:10:25 10° SSE 00:15:04 88° W 00:19:44 10° NNW
COSMO-SKYMED 1 3.2 00:11:54 10° NNE 00:15:54 35° E 00:19:52 10° SSE
ASTRO E2 4.3 00:15:24 10° WSW 00:18:55 30° S 00:22:25 10° ESE
YAOGAN 6 3.3 00:16:01 10° SE 00:19:21 33° ENE 00:22:42 10° N
Cosmos 2333 4.4 00:16:41 10° NNW 00:22:16 52° ENE 00:27:46 10° SE
USA 234 3.7 00:17:21 10° SE 00:23:50 68° SW 00:30:22 10° NW
ATLAS 5 CENTAUR R/B 3.2 00:20:12 10° WSW 00:23:52 28° NW 00:27:50 10° NNE
Cosmos 2322 3.7 00:18:36 10° NNW 00:24:13 62° ENE 00:29:48 10° SE
Cosmos 1242 Rocket 2.5 00:24:37 10° S 00:28:00 54° E 00:31:27 10° NNE
Cosmos 1626 Rocket 3.6 00:24:36 10° S 00:28:52 57° E 00:33:07 10° NNE
Cosmos 2297 Rocket 3.5 00:28:22 10° SE 00:32:11 19° E 00:35:30 12° ENE
Timation 2 Rocket 3.9 00:26:55 10° SSW 00:32:54 76° ESE 00:39:08 10° NNE
Cosmos 372 Rocket 4.2 00:28:19 10° SSW 00:33:24 75° WNW 00:38:35 10° NNE
Nadezhda 3 Rocket 4.2 00:28:51 10° N 00:34:54 48° E 00:40:58 10° SSE
Cosmos 1461 3.8 00:32:46 10° N 00:36:40 31° NE 00:40:39 10° ESE
Cosmos 2084 Rocket 3.5 00:34:11 10° NNW 00:38:40 86° ENE 00:43:05 10° SE
Cosmos 2298 Rocket 4.5 00:33:29 10° SSW 00:38:44 66° WNW 00:44:01 10° NNE
Cosmos 1174 3.6 00:35:34 10° NNW 00:38:47 77° WSW 00:42:33 10° SSE
Cosmos 2360 Rocket 3.2 00:37:03 10° NNW 00:42:30 51° WSW 00:47:55 10° S
COSMOS 2428 2.9 00:37:29 10° NNW 00:43:04 50° ENE 00:48:38 10° SE
Cosmos 2227 Rocket 3.4 00:39:33 10° SSE 00:43:44 22° E 00:46:28 15° ENE
ERBS 4.1 00:42:00 10° SSE 00:44:10 16° ESE 00:45:02 15° ESE
Cosmos 2341 Rocket 4.4 00:39:00 10° SSE 00:44:54 41° E 00:50:47 10° NNE
Alouette 2 Rocket 4.4 00:42:43 10° N 00:47:33 86° E 00:55:07 10° S
Cosmos 1825 Rocket 4.5 00:44:55 10° SE 00:48:33 26° E 00:51:23 14° NE
CZ-2D R/B 4.2 00:47:03 10° SE 00:50:14 26° ENE 00:53:27 10° NNE
Cosmos 2219 Rocket 2.2 00:46:25 10° NNW 00:52:03 62° ENE 00:57:39 10° SSE
Ariane Rocket 4.2 00:53:43 19° E 00:54:38 20° ENE 00:58:12 10° NNE
Cosmos 1340 Rocket 2.9 00:54:36 10° N 00:58:27 49° E 01:02:17 10° SSE
DELTA 2 R/B (1) 3.8 00:55:48 10° SW 01:01:17 59° SSE 01:04:41 23° E
Cosmos 1939 Rocket 3.2 01:00:13 10° SE 01:03:48 38° ENE 01:07:26 10° N
SKYMED 2 4.0 00:59:39 10° N 01:03:57 62° WNW 01:08:13 10° SSW
Cosmos 494 Rocket 4.2 01:01:20 10° N 01:06:11 42° ENE 01:11:01 10° SE
USA 32 4.0 01:01:34 10° S 01:06:43 64° E 01:11:53 10° N
SL-14 R/B 4.4 01:03:02 10° SSW 01:06:54 46° W 01:10:46 10° N
NOSS 0 Rocket 4.1 01:04:14 10° NNW 01:10:17 50° ENE 01:16:15 10° SE
Cosmos 1300 3.2 01:11:38 10° NNW 01:15:24 60° W 01:19:09 10° S
DMSP B5D1-3 4.4 01:12:57 10° NNE 01:18:02 68° ESE 01:23:05 10° S
Cosmos 1812 Rocket 3.7 01:15:01 10° N 01:19:29 78° W 01:23:56 10° S
Meteor 1-21 Rocket 4.1 01:15:31 10° S 01:21:01 72° E 01:26:38 10° NNE
YAOGAN 1 2.5 01:17:52 10° SSE 01:22:11 86° WSW 01:26:32 10° NNW
CSL-04 Debris 4.0 01:16:50 10° SSE 01:22:13 84° ENE 01:27:38 10° NNW
Cosmos 2218 Rocket 4.2 01:16:23 10° SSE 01:22:21 49° E 01:28:26 10° NNE
CZ-4 R/B 2.0 01:21:41 10° S 01:25:33 56° W 01:29:33 10° NNW
ADEOS Rocket 3.3 01:22:49 10° NNE 01:29:13 58° E 01:36:18 10° S
USA 116 4.3 01:29:34 17° N 01:31:47 44° WNW 01:34:45 10° SSW
Cosmos 2333 Rocket 2.8 01:26:30 10° NNW 01:32:05 57° WSW 01:37:36 10° S
Cosmos 864 Rocket 4.4 01:31:48 10° S 01:37:47 58° E 01:42:36 16° NNE
Cosmos 2237 Rocket 2.2 01:32:57 10° NNW 01:38:29 54° ENE 01:39:55 43° ESE
Cosmos 44 4.4 01:34:56 10° S 01:37:36 26° SSE 01:37:36 26° SSE
Cosmos 1339 Rocket 4.4 01:33:09 10° N 01:39:07 57° E 01:45:07 10° SSE
Cosmos 1241 Rocket 4.4 01:33:57 10° NNW 01:40:06 60° ENE 01:42:34 36° ESE
Haruka 3.9 01:38:44 10° SW 01:41:46 29° SSE 01:42:04 29° SSE
Cosmos-2242 4.3 01:43:51 10° N 01:52:15 11° S 01:52:29 10° S
Meteor 2-10 Rocket 3.7 01:44:37 10° N 01:49:03 53° NE 01:49:03 53° NE
CZ-4C R/B 3.0 01:44:59 10° NNW 01:52:32 90° ENE 02:00:57 10° SSE
Cosmos 1953 Rocket 3.5 01:48:46 10° S 01:53:14 83° W 01:53:40 72° NNW
Cosmos 1269 Rocket 3.9 01:48:43 10° NNW 01:54:01 89° WSW 01:57:58 18° SSE
Cosmos 2219 3.8 01:50:30 10° SW 01:55:58 54° WNW 01:59:26 22° N
Cosmos 1959 Rocket 4.4 01:49:55 10° S 01:56:09 90° ENE 02:02:19 10° N
SL-16 R/B 4.1 01:52:10 10° N 01:53:27 16° N 01:53:27 16° N
SL-8 R/B 4.0 01:52:57 10° SW 01:57:01 54° S 01:57:01 54° S
ISS -1.2 01:54:31 10° SSW 01:55:21 16° SSW 01:55:21 16° SSW
Cosmos 2082 3.9 01:55:55 10° S 02:00:30 54° SSE 02:00:30 54° SSE
Cosmos 2366 rocket 3.9 01:57:00 10° S 02:03:11 83° W 02:09:27 10° N
FALCON 9 R/B 3.9 01:51:13 10° SW 02:04:19 31° S 02:05:51 29° SSE
Cosmos 2297 Rocket 2.8 02:10:13 10° SW 02:15:43 53° WNW 02:17:22 40° NNW
Cosmos 1980 4.1 02:14:12 10° NNW 02:19:49 62° WSW 02:21:26 44° SSW
Atlas Centaur 2 3.9 02:19:05 10° SSW 02:22:19 23° S 02:22:19 23° S
Cosmos 2227 Rocket 3.0 02:21:57 10° SW 02:27:23 47° WNW 02:28:21 43° NNW
Ariane Rocket 4.0 02:33:53 43° WNW 02:33:53 43° WNW 02:38:06 10° NNW
Cosmos 2219 4.3 10:53:51 40° ESE 10:53:51 40° ESE 10:57:52 10° SE
CZ-3A R/B 4.2 11:00:59 32° SSW 11:03:50 39° SSE 11:30:37 10° E
Cosmos 2297 Rocket 2.8 11:10:59 50° NE 11:11:30 52° ENE 11:16:59 10° SE
ALOS 4.3 11:07:47 10° NE 11:11:42 26° E 11:15:34 10° SSE
USA 215 3.9 11:05:41 10° ESE 11:11:53 48° NE 11:13:25 41° N
CZ-3B R/B 3.6 11:14:42 15° SSE 11:14:42 15° SSE 11:16:07 10° SE
Cosmos 2227 Rocket 2.6 11:22:00 48° NNE 11:23:12 58° ENE 11:28:44 10° SE
Cosmos 1758 4.2 11:32:34 10° SSE 11:36:26 49° E 11:40:18 10° NNE
Cosmos 1626 3.3 11:39:11 42° ESE 11:39:11 42° ESE 11:42:06 10° SSE
Cosmos 1656 4.3 11:41:46 39° N 11:41:46 39° N 11:45:24 10° NNE
Cosmos 2369 3.7 11:37:38 17° SSW 11:42:05 83° ESE 11:47:51 10° NNE
Cosmos 1953 4.1 11:40:58 10° SSE 11:44:33 32° E 11:48:10 10° NNE
Cosmos 1602 Rocket 3.8 11:50:35 26° N 11:52:56 65° E 11:57:12 10° SSE
STARLINK-61 4.5 11:52:35 33° S 11:53:46 44° SE 11:57:33 10° ENE
